TIME,DELAY(SENSOR),PRES,OXYGEN,RAWTEMP,T(OPTODE),TCPHASE,FLUOR,BETA(BETA700),BETA(BETA412),BETA(BETA440),CDOM,C(CSC),ED(ED411.90),ED(ED443.80),ED(ED489.40),ED(ED554.70),LU(LU412.20),LU(LU443.80),LU(LU489.40),LU(LU555.00),COMP,TILTX,TILTY,CHECK
1365288302,5806,857.3599853515625000,181.3656005859375000,475.8481140136719000,8.2768983840942380,38.6884117126464840,53,102,97,79,81,11453,2146962706,2147516544,2147289737,2147506514,2147086537,2146926125,2147712576,2147121892,1441,-1,8,30331
1365291898,5807,985.3499755859375000,219.8262939453125000,530.6729736328125000,6.5746397972106930,37.2750282287597660,52,102,97,79,81,11454,2146965622,2147518683,2147296530,2147515401,2147085787,2146916818,2147719899,2147119680,201,-1,8,64384
1365295498,5805,1012.3099975585938000,228.1161956787109400,540.4799194335938000,6.2679080963134770,36.9942588806152340,52,100,101,80,81,11451,2146964416,2147517229,2147299419,2147520329,2147088603,2146923693,2147726774,2147118336,614,0,8,39939
1365299098,5809,1014.6599731445312000,234.2808074951172000,542.1925048828125000,6.2142682075500490,36.6968498229980500,52,101,97,80,81,11454,2146964077,2147514139,2147300105,2147518162,2147088256,2146918884,2147725952,2147117668,10,0,8,30875
1365302698,5807,1015.4799804687500000,234.5523071289062500,543.2103271484375000,6.1823787689208980,36.7010307312011700,52,103,98,78,81,11455,2146961929,2147513179,2147299611,2147519945,2147087616,2146918381,2147726921,2147117540,3148,0,8,29280
1365306298,5807,1016.3800048828125000,235.7024993896484400,543.9027099609375000,6.1606807708740230,36.6530685424804700,52,103,100,80,81,11442,2146964397,2147514340,2147296246,2147517613,2147081334,2146920182,2147729206,2147122258,85,0,8,56538
1365309898,5803,1014.6199951171875000,236.8112030029297000,543.7064208984375000,6.1668338775634770,36.5918388366699200,52,104,98,79,81,11447,2146962477,2147515062,2147297298,2147514459,2147086829,2146919506,2147726784,2147119936,2919,-1,8,32222
1365313498,5804,1024.3699951171875000,235.3451995849609400,543.5714721679688000,6.1710610389709470,36.6658287048339840,52,101,98,79,80,11441,2146960064,2147521728,2147297206,2147518454,2147087296,2146916315,2147724534,2147121280,3523,-1,8,15669
1365317098,5808,1021.1900024414062000,235.3462066650390600,544.7160034179688000,6.1351890563964840,36.6861610412597660,51,102,99,81,81,11441,2146962386,2147517741,2147299126,2147521133,2147087744,2146915136,2147724086,2147121024,140,0,8,38878
1365320698,5805,1023.4400024414062000,236.2704925537109400,544.4904174804688000,6.1422600746154785,36.6342086791992200,52,104,99,78,80,11442,2146960073,2147516608,2147296612,2147518354,2147086299,2146915337,2147726144,2147118171,3420,-1,8,41443
1365324298,5807,1020.8300170898438000,235.3070068359375000,544.5020751953125000,6.1418929100036620,36.6843414306640600,52,103,98,79,80,11430,2146963840,2147519570,2147298934,2147519241,2147086354,2146918326,2147725942,2147122468,188,0,8,47421
1365327898,5809,1023.8099975585938000,234.1739959716797000,544.0388793945312000,6.1564121246337890,36.7356185913085940,53,104,98,79,81,11442,2146964763,2147515392,2147297298,2147518253,2147090322,2146916123,2147724717,2147119945,37,-1,8,2442
1365331498,5806,1026.2500000000000000,235.2295074462890600,544.4224853515625000,6.1443858146667480,36.6869583129882800,52,101,97,79,80,11440,2146960475,2147517092,2147296118,2147518555,2147085504,2146924598,2147724781,2147121572,3388,-1,8,53393
1365335098,5808,1030.2199707031250000,237.2539978027343800,544.4357299804688000,6.1439738273620605,36.5820312500000000,52,104,97,79,81,11439,2146965248,2147516626,2147297472,2147518573,2147085888,2146919213,2147725741,2147118930,93,-1,8,9030
1365338698,5805,1029.0500488281250000,237.7949981689453000,544.2908935546875000,6.1485137939453125,36.5516700744628900,52,103,97,81,81,11439,2146964123,2147518884,2147297600,2147515748,2147085659,2146925348,2147725138,2147121170,480,0,8,34875
1365342298,5807,1038.6700439453125000,237.0135955810547000,542.8447265625000000,6.1938362121582030,36.5655593872070300,52,102,97,79,81,11437,2146964452,2147516690,2147298825,2147521097,2147088045,2146922898,2147725622,2147121380,2871,-1,8,62738
1365345898,5807,1035.0600585937500000,235.7268066406250000,542.2523193359375000,6.2123951911926270,36.6220512390136700,52,106,96,80,81,11438,2146963693,2147520155,2147297389,2147517504,2147087405,2146923200,2147723547,2147118400,3267,-1,8,42814
1365349498,5809,1036.1999511718750000,236.5019989013672000,543.9459228515625000,6.1593279838562010,36.6126594543457000,53,101,98,78,81,11438,2146966848,2147514450,2147297462,2147520594,2147086144,2146917888,2147726555,2147116160,8,0,8,51411
1365353098,5808,1025.7299804687500000,233.3186950683593800,542.1627807617188000,6.2151989936828610,36.7470893859863300,52,107,98,79,80,11436,2146966061,2147515053,2147298468,2147520109,2147081974,2146922605,2147728512,2147121536,92,0,8,24511
1365356698,5804,1025.1199951171875000,233.5816955566406200,543.0407714843750000,6.1876912117004395,36.7485618591308600,52,103,98,79,81,11430,2146966747,2147517869,2147299300,2147517129,2147085622,2146924233,2147726372,2147119762,3232,-1,8,8524
1365360298,5805,1027.8299560546875000,237.1728973388672000,543.5172729492188000,6.1727600097656250,36.5698089599609400,52,105,98,80,81,11436,2146963931,2147519259,2147293650,2147519497,2147088768,2146918729,2147725650,2147119305,156,0,8,46275
1365363898,5808,1017.4699707031250000,234.3782043457031200,543.2974853515625000,6.1796469688415530,36.7114982604980500,52,101,98,80,80,11434,2146962029,2147513481,2147296832,2147519972,2147085915,2146920292,2147725440,2147119817,3556,0,8,34959
1365367498,5807,1022.8599853515625000,237.2893066406250000,543.5383911132812000,6.1720981597900390,36.5638389587402340,52,104,100,79,80,11434,2146962660,2147517440,2147296128,2147517284,2147085321,2146920192,2147721764,2147120502,346,-1,8,35150
1365371098,5803,1040.3299560546875000,237.2792968750000000,542.8759765625000000,6.1928520202636720,36.5521812438964840,52,109,96,80,81,11433,2146962642,2147518656,2147297892,2147519085,2147084388,2146924141,2147725321,2147117933,3475,0,8,59706
1365374698,5808,1030.1700439453125000,235.8816986083984400,542.1624755859375000,6.2152061462402340,36.6124000549316400,52,103,98,78,80,11431,2146967149,2147520768,2147294116,2147520137,2147084909,2146921124,2147723300,2147121755,3570,-1,8,9280
1365378298,5805,1041.7900390625000000,233.0675964355468800,539.4744262695312000,6.2993907928466800,36.7114715576171900,52,103,98,79,79,11432,2146966272,2147515035,2147297481,2147519908,2147089371,2146925458,2147716882,2147119917,2277,-1,8,38604
1365381898,5807,1017.2299804687500000,222.9739990234375000,528.9467773437500000,6.6285529136657715,37.0681800842285160,52,103,98,79,80,11432,2146963629,2147523218,2147294646,2147516370,2147085056,2146922112,2147722130,2147122550,664,-1,8,55683
1365385498,5809,1004.0000000000000000,221.8309020996093800,530.1627807617188000,6.5905737876892090,37.1528015136718750,52,101,98,79,81,11431,2146961664,2147519872,2147296064,2147517632,2147085997,2146923245,2147723328,2147121682,331,0,8,49633
1365389098,5807,1005.5499877929688000,222.5700988769531200,529.3060302734375000,6.6173357963562010,37.0970306396484400,52,101,97,79,81,11429,2146963776,2147517339,2147297910,2147513270,2147084827,2146922907,2147722276,2147118829,572,-1,8,40352
1365392698,5805,1007.7800292968750000,223.1271972656250000,530.1680297851562000,6.5904121398925780,37.0812301635742200,52,103,97,79,81,11430,2146963620,2147519798,2147294692,2147516105,2147083510,2146928155,2147723995,2147119305,254,-1,8,9794
1365396298,5804,1007.0100097656250000,224.1060943603515600,530.7003173828125000,6.5737838745117190,37.0369987487793000,51,102,97,79,81,11427,2146963547,2147517440,2147294939,2147517522,2147083766,2146923858,2147723520,2147118838,3098,-1,8,25799
1365399898,5806,1002.3599853515625000,222.7563934326172000,532.9301757812500000,6.5041031837463380,37.1516609191894500,52,100,97,79,80,11430,2146962413,2147520777,2147295232,2147514358,2147087542,2146919131,2147725952,2147121819,104,0,8,30409
1365403498,5807,1007.0999755859375000,223.7554016113281200,531.7216186523438000,6.5418758392333980,37.0745887756347660,52,103,96,80,81,11428,2146964525,2147512082,2147296621,2147518208,2147084809,2146923364,2147720859,2147121691,48,0,8,51480
1365407098,5805,1008.7299804687500000,223.5594024658203000,531.5911865234375000,6.5459480285644530,37.0830116271972660,51,102,98,77,79,11427,2146965129,2147518336,2147296310,2147513417,2147085165,2146923922,2147725833,2147120822,3381,0,8,36125
1365410698,5805,1010.5000000000000000,224.0686950683593800,530.6340942382812000,6.5758528709411620,37.0379409790039060,52,101,98,78,80,11429,2146962185,2147517312,2147296658,2147513115,2147082459,2146918043,2147718217,2147118848,2856,-1,8,53306
1365414298,5805,1015.7999877929688000,221.3628997802734400,529.0905761718750000,6.6240630149841310,37.1604690551757800,53,102,98,79,80,11425,2146963913,2147516580,2147298550,2147516260,2147083849,2146919433,2147721280,2147120713,587,-1,8,64442
1365417898,5808,1012.7999877929688000,221.4766998291015600,526.9989013671875000,6.6893668174743650,37.1163215637207000,53,106,97,78,81,11426,2146965613,2147517229,2147296146,2147512438,2147083693,2146916288,2147718473,2147120585,142,-1,8,26629
1365421498,5805,1015.7899780273438000,220.0258026123047000,528.0989990234375000,6.6550250053405760,37.2174110412597660,52,101,96,80,80,11428,2146969499,2147515840,2147295597,2147514596,2147084425,2146922843,2147720969,2147120585,1919,0,8,2045
1365425098,5809,1018.8900146484375000,219.0971984863281200,528.1198120117188000,6.6543769836425780,37.2701187133789060,52,103,98,80,81,11425,2146963346,2147516160,2147295113,2147514532,2147085366,2146923849,2147721490,2147118912,142,0,8,661
1365428698,5802,1011.5200195312500000,221.6614074707031200,528.1124267578125000,6.6546077728271480,37.1263313293457000,52,101,97,79,80,11428,2146963273,2147516672,2147295469,2147513984,2147084992,2146916306,2147723282,2147119762,2548,-1,8,27026
1365431755,5810,1013.6099853515625000,221.5016937255859400,528.4166259765625000,6.6451110839843750,37.1408195495605500,52,100,97,83,81,11431,2146962496,2147516736,2147293988,2147512000,2147082788,2146920329,2147719250,2147118957,51,0,8,1831
